DW0307 Weather Reports


time (UTC)temp
C
wind
direction
speed
KPH
gust
KPH
rain 1hr
cm
rain 24hr
cm
rain mn
cm
humidity
%
barometer
mb
20260906043100 11 255 1.6 11.3 0.00 0.00 0.00 70 1021.8
20260906041550 11 238 9.7 20.9 0.00 0.00 0.00 71 1021.8
20260906040052 11 240 16.1 25.7 0.00 0.00 0.00 71 1021.6
20260906034601 12 249 14.5 33.8 0.00 0.00 0.00 70 1021.5
20260906033056 12 219 19.3 29.0 0.00 0.00 0.00 70 1021.4
20260906031613 12 243 20.9 33.8 0.00 0.00 0.00 70 1021.1
20260906030106 12 250 17.7 25.7 0.00 0.00 0.00 69 1020.9
20260906024603 12 269 17.7 25.7 0.00 0.00 0.00 68 1021.1
20260906023112 12 153 4.8 14.5 0.00 0.00 0.00 68 1020.9
20260906021601 12 201 9.7 16.1 0.00 0.00 0.00 69 1020.9
20260906020101 13 129 4.8 12.9 0.00 0.00 0.00 69 1020.9
20260906014554 12 128 3.2 9.7 0.00 0.00 0.00 70 1021.1
20260906013050 13 102 8.0 11.3 0.00 0.00 0.00 69 1021.1
20260906011553 13 0 3.2 11.3 0.00 0.00 0.00 68 1020.9
20260906004603 13 69 3.2 14.5 0.00 0.00 0.00 67 1021.0
20260906003105 13 118 4.8 17.7 0.00 0.00 0.00 66 1020.8
20260906001551 14 28 8.0 17.7 0.00 0.00 0.00 60 1020.8
20260906000108 14 76 8.0 17.7 0.00 0.00 0.00 56 1020.8
20260905234556 13 332 3.2 14.5 0.00 0.00 0.00 58 1020.6
20260905233106 14 248 0.0 6.4 0.00 0.00 0.00 55 1020.5
20260905231618 14 118 1.6 16.1 0.00 0.00 0.00 55 1020.6
20260905230104 13 132 6.4 12.9 0.00 0.00 0.00 56 1020.3
20260905224604 15 0 0.0 11.3 0.00 0.00 0.00 52 1020.3
20260905223105 16 0 4.8 24.1 0.00 0.00 0.00 49 1020.2
20260905221602 16 232 8.0 29.0 0.00 0.00 0.00 50 1020.3
20260905220056 16 246 1.6 24.1 0.00 0.00 0.00 52 1020.3
20260905214602 15 223 11.3 24.1 0.00 0.00 0.00 57 1020.1
20260905213104 16 221 19.3 33.8 0.00 0.00 0.00 58 1020.0
20260905211552 16 213 11.3 24.1 0.00 0.00 0.00 58 1020.1
20260905210103 16 227 11.3 25.7 0.00 0.00 0.00 55 1020.0
20260905204558 16 252 12.9 22.5 0.00 0.00 0.00 53 1020.0
20260905203053 16 227 9.7 16.1 0.00 0.00 0.00 56 1020.2
20260905201552 15 251 9.7 20.9 0.00 0.00 0.00 58 1020.3
20260905200100 16 225 6.4 17.7 0.00 0.00 0.00 60 1020.1
20260905194556 16 219 17.7 41.8 0.00 0.00 0.00 55 1020.0
20260905193051 15 263 11.3 16.1 0.00 0.00 0.00 55 1019.9
20260905191600 13 290 9.7 20.9 0.00 0.00 0.00 65 1020.0
20260905184602 14 245 8.0 14.5 0.00 0.00 0.00 64 1019.9
20260905183053 13 183 4.8 9.7 0.00 0.00 0.00 68 1019.6
20260905181607 13 313 1.6 6.4 0.00 0.00 0.00 68 1019.5
20260905180115 13 257 8.0 16.1 0.00 0.00 0.00 67 1019.2
20260905174555 14 27 8.0 19.3 0.00 0.00 0.00 65 1018.8
20260905173112 15 231 6.4 17.7 0.00 0.00 0.00 61 1018.4
20260905171554 16 263 17.7 30.6 0.00 0.00 0.00 59 1018.2
20260905170049 17 248 20.9 33.8 0.00 0.00 0.00 57 1018.2
20260905164602 17 238 22.5 35.4 0.00 0.00 0.00 55 1018.0
20260905163102 17 258 25.7 38.6 0.00 0.00 0.00 54 1017.9
20260905161601 18 260 22.5 40.2 0.00 0.00 0.00 54 1017.8
20260905160100 18 246 30.6 43.5 0.00 0.00 0.00 52 1017.8
20260905154605 19 250 27.4 41.8 0.00 0.00 0.00 51 1017.8
20260905153047 19 257 30.6 45.1 0.00 0.00 0.00 50 1017.6
20260905151559 20 252 32.2 46.7 0.00 0.00 0.00 50 1017.6
20260905150055 20 250 30.6 45.1 0.00 0.00 0.00 49 1017.6
20260905144550 20 232 30.6 43.5 0.00 0.00 0.00 47 1017.8
20260905143102 20 250 27.4 46.7 0.00 0.00 0.00 52 1017.7
20260905141559 20 250 27.4 41.8 0.00 0.00 0.00 52 1017.9
20260905140100 20 249 29.0 49.9 0.00 0.00 0.00 54 1017.7
20260905134558 21 252 29.0 40.2 0.00 0.00 0.00 51 1017.8
20260905133059 20 269 27.4 46.7 0.00 0.00 0.00 52 1017.8
20260905131555 20 267 30.6 40.2 0.00 0.00 0.00 53 1017.7
20260905130054 21 234 20.9 33.8 0.00 0.00 0.00 53 1017.6
20260905124601 21 246 19.3 30.6 0.00 0.00 0.00 54 1017.5
20260905123105 21 257 24.1 41.8 0.00 0.00 0.00 55 1017.6
20260905121556 21 239 24.1 37.0 0.00 0.00 0.00 56 1017.6
20260905120111 21 229 19.3 37.0 0.00 0.00 0.00 59 1017.9
20260905114608 20 225 16.1 35.4 0.00 0.00 0.00 61 1017.7
20260905113101 20 258 20.9 40.2 0.00 0.00 0.00 60 1017.9
20260905111655 19 265 24.1 43.5 0.00 0.00 0.00 62 1017.9
20260905110058 17 265 22.5 40.2 0.00 0.00 0.00 67 1017.7
20260905104555 17 246 16.1 22.5 0.00 0.00 0.00 70 1018.2
20260905103104 17 251 3.2 12.9 0.00 0.00 0.00 72 1018.3
20260905101549 16 215 6.4 33.8 0.00 0.00 0.00 74 1017.8
20260905100101 16 248 24.1 37.0 0.00 0.00 0.00 76 1018.7
20260905094551 15 267 29.0 38.6 0.00 0.00 0.00 74 1017.2
20260905093107 15 254 29.0 40.2 0.00 0.00 0.00 75 1017.3
20260905091601 16 257 29.0 45.1 0.00 0.00 0.00 75 1016.8
20260905090057 15 236 22.5 32.2 0.00 0.00 0.00 76 1016.9
20260905084603 16 261 37.0 59.5 0.00 0.00 0.00 72 1017.6
20260905083100 16 248 29.0 43.5 0.00 0.00 0.00 68 1016.7
20260905081559 18 251 33.8 57.9 0.00 0.00 0.00 62 1016.7
20260905080101 19 245 20.9 33.8 0.00 0.00 0.00 60 1016.9
20260905074609 20 227 16.1 29.0 0.00 0.00 0.00 60 1016.6
20260905073056 18 0 8.0 35.4 0.00 0.00 0.00 64 1016.2
20260905071552 18 199 9.7 20.9 0.00 0.00 0.00 70 1017.1
20260905070055 18 126 1.6 9.7 0.00 0.00 0.00 74 1016.8
20260905064609 17 360 6.4 12.9 0.00 0.00 0.00 76 1017.2
20260905063058 17 26 9.7 17.7 0.00 0.00 0.00 78 1016.8
20260905061553 16 302 8.0 22.5 0.00 0.00 0.00 78 1016.4
20260905060050 16 242 8.0 25.7 0.00 0.00 0.00 81 1016.4
20260905054600 15 209 1.6 6.4 0.00 0.00 0.00 84 1016.4
20260905053055 14 232 0.0 4.8 0.00 0.00 0.00 85 1016.2
20260905051553 13 0 1.6 8.0 0.00 0.00 0.00 85 1016.2
20260905050056 13 252 6.4 11.3 0.00 0.00 0.00 84 1015.8
20260905044550 14 273 0.0 6.4 0.00 0.00 0.00 82 1015.4